Regional Weather Roundup
Issued by NWS Kansas City/Pleasant Hill, MO

Home | Current Version | Previous Version | Text Only | Print | Product List | Glossary On
Versions: 1 2 3 4 5 6 7 8 9 10 11 12 13 14 15 16 17 18 19 20 21 22 23 24 25 26 27
000
ASUS43 KEAX 221510
RWREAX

WEATHER ROUNDUP FOR EASTERN KANSAS AND NORTHWEST MISSOURI
NATIONAL WEATHER SERVICE KANSAS CITY/PLEASANT HILL MO
900 AM CST WED FEB 22 2017

KSZ040-057-103>105-MOZ028-029-037-043-221600-
...KANSAS CITY METROPOLITAN AREA...

CITY           SKY/WX    TMP DP  RH WIND       PRES   REMARKS
K.C. INTL      PTSUNNY   60  41  49 S16G23    29.74F
K.C. DOWNTOWN  MOSUNNY   60  44  55 S9        29.75F
LEES SUMMIT    SUNNY     58  47  66 S14       29.79F
OLATHE - IXD   MOSUNNY   52  44  74 S8        29.78F
OLATHE - OJC   MOSUNNY   53  45  74 S12       29.78F
LAWRENCE       MOSUNNY   58  37  45 S6        29.76F

$$

MOZ001>008-011>017-020>025-030>033-038>040-044>046-053-054-221600-
...NORTHERN AND CENTRAL MISSOURI...

CITY           SKY/WX    TMP DP  RH WIND       PRES   REMARKS
ST. JOSEPH     CLOUDY    57  38  48 S17       29.71F
WARRENSBURG    SUNNY     54  50  87 S12       29.81F
WHITEMAN AFB   PTSUNNY   54  54 100 SW17      29.81S FOG
CLINTON        CLOUDY    54  54 100 SW10      29.84S FOG
SEDALIA        CLOUDY    54  54 100 S10       29.84S FOG
WARSAW         NOT AVBL
CHILLICOTHE      N/A     57  48  72 S10       29.78S
KIRKSVILLE     SUNNY     55  52  89 SW12      29.79F

$$

MOZ041-047>049-056>058-063>065-088>090-097-221600-
...EASTERN AND SOUTHERN MISSOURI...

CITY           SKY/WX    TMP DP  RH WIND       PRES   REMARKS
ST. LOUIS INTL CLOUDY    56  54  93 S8        29.85F FOG
SPIRIT OF STL  CLOUDY    54  54 100 S6        29.84F FOG
COLUMBIA       FOG       54  54 100 S10       29.83F VSB 1/4
JEFFERSON CITY CLOUDY    53  53 100 S7        29.85F FOG
ROLLA          FOG       54  54 100 S10       29.85S VSB 1/4
OSAGE BEACH    FOG       54  54 100 SW9       29.87S VSB 3/4
SPRINGFIELD    CLOUDY    55  55 100 S12       29.87S FOG
BRANSON        CLOUDY    55  55 100 SE5       29.89F FOG
JOPLIN         CLOUDY    54  54 100 S8        29.87S FOG
WEST PLAINS    CLOUDY    58  56  93 CALM      29.91S

$$

IAZ060-094-KSZ022-034>040-054-083-096-NEZ052-066-093-221600-
...KANSAS...SOUTHEAST NEBRASKA AND IOWA...

CITY           SKY/WX    TMP DP  RH WIND       PRES   REMARKS
TOPEKA         MOSUNNY   57  38  48 SW5       29.75S
MANHATTAN      CLOUDY    57  35  43 SW8       29.71F
EMPORIA        SUNNY     61  39  44 S17       29.77S
CHANUTE        SUNNY     56  42  59 S12       29.83F
WICHITA        MOSUNNY   51  41  68 S8        29.80F
OMAHA          MOSUNNY   52  37  56 SE8       29.64F
LINCOLN        SUNNY     48  35  60 W6        29.68S
FALLS CITY     SUNNY     56  34  43 SW15G24   29.68S
LAMONI         SUNNY     52  38  58 S14       29.71F
DES MOINES     MOSUNNY   57  33  40 SW13      29.67F

$$





USA.gov is the U.S. government's official web portal to all federal, state and local government web resources and services.